{"data":{"norad_id":63381,"epoch":"2026-09-20T05:16:38.384544Z","epoch_age_seconds":183084,"freshness":"STALE","line1":"1 63381U 25063U   26263.21988871  .00015465  00000+0  46778-3 0  9995","line2":"2 63381  53.1590 226.7111 0001592  74.0320 286.0858 15.34408690 84570","mean_motion":15.3440869,"eccentricity":0.0001592,"inclination_deg":53.159,"raan_deg":226.7111,"arg_perigee_deg":74.032,"mean_anomaly_deg":286.0858,"bstar":0.00046778,"rev_number":8457,"period_min":93.847226582117,"perigee_km":461.58835416331,"apogee_km":463.76646947203,"semimajor_km":6840.8144118177,"source":"CELESTRAK","updated_at":"2026-09-21T09:00:34.975836Z"}}